EHI
46 27 8 2 0 0 0 0 0 0 0 0 0 0 0 0 0 0 0 0 0 0 0 0 0 0 0 0 0 0 0 0 0 0 0 0 0 0 0 0 0 0 0 1 2 4 4 4 5
34 20 6 1 0 0 0 0 0 0 0 0 0 0 0 0 0 0 0 0 0 0 0 0 0 0 0 0 0 0 0 0 0 0 0 0 0 0 0 0 0 0 0 0 1 2 3 3 3
21 12 3 0 0 0 0 0 0 0 0 0 0 0 0 0 0 0 0 0 0 0 0 0 0 0 0 0 0 0 0 0 0 0 0 0 0 0 0 0 0 0 0 0 0 0 1 1 1
8 4 1 0 0 0 0 0 0 0 0 0 0 0 0 1 3 3 2 0 0 0 0 0 0 0 0 0 0 0 0 0 0 0 0 0 0 0 0 0 0 0 0 0 0 0 0 0 0
1 0 0 0 0 0 0 0 0 0 0 0 0 0 0 4 10 9 3 0 0 0 0 0 0 0 0 0 0 0 0 0 0 0 0 0 0 0 0 0 0 0 0 0 0 0 0 0 0
0 0 0 0 0 0 0 0 0 0 0 0 0 0 0 6 14 12 4 1 0 0 0 0 0 0 0 0 0 0 0 0 0 0 0 0 0 0 0 0 0 0 0 0 0 0 0 0 0
0 0 0 0 0 0 0 0 0 0 0 0 0 0 0 4 10 10 6 3 1 0 0 0 0 0 0 0 0 0 0 0 0 0 0 0 0 0 0 0 0 0 0 0 0 0 0 0 0
0 0 0 0 0 0 0 0 0 0 0 0 0 0 0 1 5 10 12 9 4 0 0 0 0 0 0 0 0 0 0 0 0 0 0 0 0 0 0 0 0 0 0 0 0 0 0 0 0
0 0 0 0 0 0 0 0 0 0 0 0 0 0 0 0 3 11 21 22 14 5 2 0 0 0 0 0 0 0 0 0 0 0 0 0 0 0 0 0 0 0 0 0 0 0 0 0 0
0 0 0 0 0 0 0 0 0 0 0 0 0 0 0 0 2 10 25 37 33 20 9 2 0 0 0 0 0 0 0 0 0 0 0 0 0 0 0 0 0 0 0 0 0 0 0 0 0
0 0 0 0 0 0 0 0 0 0 0 0 0 0 0 0 1 6 19 36 44 39 26 12 5 2 1 0 0 0 0 0 0 0 0 0 0 0 0 0 0 0 0 0 0 0 0 0 0
0 0 0 0 0 0 0 0 0 0 0 0 0 0 0 0 0 2 8 18 33 46 45 32 20 12 6 3 1 0 0 0 0 0 0 0 0 0 0 0 0 0 0 0 0 0 0 0 0
0 0 0 0 0 0 0 0 0 0 0 0 0 0 0 0 0 0 1 4 14 32 45 44 38 29 21 14 7 3 1 0 0 0 0 0 0 0 0 0 0 0 0 0 0 0 0 0 0
0 0 0 0 0 0 0 0 0 0 0 0 0 1 0 0 1 1 0 0 4 13 25 37 43 45 42 32 19 10 4 1 0 0 0 0 0 0 0 0 0 0 0 0 0 0 0 0 0
0 0 0 0 0 0 0 0 0 0 0 0 0 0 0 1 2 1 0 0 0 2 9 22 35 46 52 45 28 16 8 3 1 0 0 0 0 0 0 0 0 0 0 0 0 0 0 0 0
0 0 0 0 0 0 0 0 0 0 0 0 0 0 0 1 2 2 1 1 1 1 3 11 21 33 45 44 31 20 12 6 3 1 0 0 0 0 0 0 0 0 0 0 0 0 0 0 0
0 0 0 0 0 0 0 0 0 0 0 0 0 0 0 0 1 2 2 2 2 1 1 5 10 17 26 32 30 22 15 9 4 2 0 0 0 0 0 0 0 0 0 0 0 0 0 0 0
0 0 0 0 0 0 0 0 0 0 0 0 0 0 0 0 0 1 2 2 2 1 1 3 6 8 10 16 20 19 16 10 5 2 0 0 0 0 0 0 0 0 0 0 0 0 0 0 0
0 0 0 0 0 0 0 0 0 0 0 0 0 0 0 0 0 0 1 1 1 0 0 2 3 3 2 5 9 13 15 12 7 4 2 0 0 0 0 0 0 0 0 0 0 0 0 0 0
0 0 0 0 0 0 0 0 0 0 0 0 0 0 0 0 0 0 0 0 0 0 0 1 1 0 0 2 5 10 14 14 10 6 3 1 0 0 0 0 0 0 0 0 0 0 0 0 0
0 0 0 0 0 0 0 0 0 0 0 0 0 0 0 0 0 0 0 0 0 0 0 1 0 0 0 1 4 10 15 18 16 11 7 2 0 0 0 0 0 0 0 0 0 0 0 0 0
0 0 0 0 0 0 0 0 0 0 0 0 0 0 0 0 0 0 0 0 0 0 0 0 0 0 0 1 3 8 15 20 20 19 13 5 1 0 0 0 0 0 0 0 0 0 0 0 0
0 0 0 0 0 0 0 0 0 0 0 0 0 0 0 0 0 0 0 0 0 0 0 0 0 0 0 0 2 5 11 17 19 19 15 7 2 0 0 0 0 0 0 0 0 0 0 0 0
0 0 0 0 0 0 0 0 0 0 0 0 0 0 0 0 0 0 0 0 0 0 0 0 0 0 0 0 0 2 7 11 14 14 11 7 4 1 0 0 0 0 0 0 0 0 0 0 0
0 0 0 0 0 0 0 0 0 0 0 0 0 0 0 0 0 0 0 0 0 0 0 0 0 0 0 0 0 1 3 6 9 9 7 5 4 1 0 0 0 0 0 0 0 0 0 0 0
0 0 0 0 0 0 0 0 0 0 0 0 0 0 0 0 0 0 0 0 0 0 0 0 0 0 0 0 0 0 1 3 4 4 3 3 2 1 1 0 0 0 0 0 0 0 0 0 0
0 0 0 0 0 0 0 0 0 0 0 0 0 0 0 0 0 0 0 0 0 0 0 0 0 0 0 0 0 0 0 1 1 0 1 1 1 0 0 0 0 0 0 0 0 0 0 0 0
0 0 0 0 0 0 0 0 0 0 0 0 0 0 0 0 0 0 0 0 0 0 0 0 0 0 0 0 0 0 0 0 0 0 0 0 0 0 0 0 0 0 0 0 0 0 0 0 0
0 0 0 0 0 0 0 0 0 0 0 0 0 0 0 0 0 0 0 0 0 0 0 0 0 0 0 0 0 0 0 0 0 0 0 0 0 0 0 0 0 0 0 0 0 0 0 0 0
0 0 0 0 0 0 0 0 0 0 0 0 0 0 0 0 0 0 0 0 0 0 0 0 0 0 0 0 0 0 0 0 0 0 0 0 0 0 0 0 0 0 0 0 0 0 0 0 0
Wind_Speed
4 1 3 2 6 6 3 1 3 5 5 5 7 9 7 4 3 5 5 13 15 13 10 13 15 15 14 14 14 13 13 13 12 12 12 11 11 10 10 9 9 9 8 8 8 8 8 8 7
1 0 2 4 7 5 1 1 4 4 6 8 7 7 7 5 6 9 7 14 17 14 11 11 16 15 14 14 13 13 13 13 12 12 11 11 10 10 9 9 9 8 8 8 7 7 7 7 6
2 2 3 4 4 5 3 3 4 4 6 6 5 5 6 6 8 6 10 17 15 13 10 12 16 15 14 13 13 13 13 13 12 11 11 10 10 10 9 9 9 8 8 8 7 6 6 6 5
1 3 4 4 2 5 6 5 4 5 5 6 7 6 4 4 6 12 18 17 15 12 10 12 16 15 14 13 13 13 13 13 12 11 11 10 10 9 9 9 9 8 8 8 6 5 5 5 4
3 4 5 3 1 1 3 4 4 5 4 6 8 6 4 3 14 20 18 16 15 12 10 11 16 15 14 13 12 13 13 13 12 11 11 10 9 9 9 8 8 8 7 7 6 5 5 4 4
5 5 5 3 4 3 1 2 6 9 9 8 9 6 3 6 15 16 16 14 14 14 11 10 15 15 13 13 13 13 13 13 12 11 11 10 10 9 9 8 7 6 6 5 5 4 4 4 4
4 4 2 2 3 3 3 2 6 8 7 6 8 7 4 5 10 14 15 14 13 13 11 8 9 10 13 13 13 13 13 13 12 12 11 10 10 10 9 9 8 6 5 5 4 4 4 3 3
5 5 3 3 4 4 5 3 4 8 6 7 7 9 7 8 10 12 13 13 12 10 11 9 8 7 7 8 13 13 13 13 12 12 11 11 10 10 10 9 8 7 6 5 4 4 3 3 2
5 6 2 1 2 5 7 5 5 6 7 4 3 6 10 14 12 12 10 9 10 11 9 10 9 8 7 7 11 11 12 13 12 11 13 10 5 5 6 9 10 8 7 6 5 5 4 3 3
5 4 2 3 3 4 5 3 3 6 7 5 6 7 12 13 13 13 14 14 13 13 12 10 11 10 9 8 7 5 6 6 6 5 6 4 4 4 6 8 11 10 9 7 7 6 5 4 2
3 4 4 2 3 3 2 3 3 5 3 4 10 13 14 11 12 13 15 16 17 15 14 13 12 11 10 7 6 4 4 4 5 6 6 5 4 3 4 3 5 5 6 3 4 4 3 2 2
3 2 5 5 5 3 2 0 2 3 1 4 12 15 13 11 11 12 13 15 13 14 15 14 14 12 11 8 7 7 5 5 5 6 7 5 3 4 4 3 3 3 2 3 3 2 4 4 4
1 1 2 4 6 4 1 1 2 4 5 6 9 9 8 6 3 2 4 7 9 13 15 15 15 14 12 9 8 8 7 7 7 6 7 7 5 5 5 4 4 4 3 3 3 3 4 5 5
2 2 2 2 3 2 2 4 6 7 8 11 10 7 5 5 4 4 5 2 2 5 8 11 15 15 13 11 9 8 8 7 7 6 8 9 6 6 6 5 5 5 5 4 4 4 4 3 3
1 2 5 5 4 3 5 7 6 6 9 11 9 7 8 7 8 7 6 5 4 2 1 3 9 11 13 12 12 9 8 7 7 7 8 8 7 8 7 7 6 6 5 5 3 3 3 3 3
5 4 4 5 6 5 5 2 5 8 10 11 10 10 9 9 9 8 8 8 7 7 6 3 2 6 9 9 10 8 8 8 8 7 7 9 9 8 7 7 7 6 5 4 3 3 3 2 2
6 3 3 5 7 5 6 3 6 9 12 13 13 12 11 10 11 10 10 10 9 9 8 7 5 2 4 6 7 7 8 8 7 6 6 8 9 8 7 6 6 6 4 4 4 2 3 2 2
3 2 3 5 7 6 7 7 11 14 16 14 13 12 12 12 12 11 11 10 9 9 9 9 8 7 4 2 3 3 5 6 6 6 7 7 6 8 7 5 6 6 5 4 3 3 2 2 2
4 4 3 2 5 6 9 10 11 13 15 15 14 13 13 13 12 12 12 11 10 10 9 9 9 8 6 2 2 3 4 5 5 5 6 6 6 7 7 5 6 6 5 5 5 3 3 2 2
8 6 5 4 5 4 9 11 10 14 15 13 13 13 14 14 15 14 14 13 12 11 10 8 8 7 6 4 3 3 3 3 4 4 4 5 5 6 7 7 6 6 5 5 4 4 3 2 2
5 4 3 4 5 4 6 6 10 11 14 16 16 14 15 15 15 15 14 12 12 11 11 9 8 8 7 7 3 1 1 1 1 3 4 5 6 6 5 6 5 5 5 5 4 4 5 3 2
4 5 5 4 3 3 3 2 6 9 14 18 16 15 15 14 13 13 13 13 12 11 10 8 8 8 8 7 4 3 4 5 6 4 4 4 5 6 6 6 6 5 4 4 4 4 3 4 3
5 7 5 3 1 2 5 4 4 7 13 16 15 15 14 14 13 13 12 11 10 10 10 9 9 8 8 7 6 4 3 4 3 3 5 4 3 4 5 5 5 4 3 4 4 4 3 3 3
6 6 6 6 6 5 5 4 5 8 11 14 14 14 14 14 13 12 11 10 9 9 9 9 9 9 8 8 6 4 2 2 3 4 5 4 3 3 4 4 4 4 4 4 4 4 4 3 3
9 7 7 9 7 2 3 6 4 7 9 11 13 13 13 12 12 11 11 10 10 10 9 9 8 8 8 8 7 6 3 0 2 3 4 4 3 3 4 4 3 3 3 3 3 4 3 4 4
5 5 5 2 1 2 5 4 1 6 8 9 10 11 11 12 11 11 11 9 9 9 9 8 8 7 8 7 6 6 5 2 2 2 2 3 2 3 4 4 3 3 3 3 3 3 3 3 3
4 3 2 4 2 3 3 2 2 7 10 11 12 13 13 13 12 12 11 9 8 8 8 8 7 7 7 7 6 6 6 5 5 4 4 4 3 3 4 4 4 3 3 3 3 2 3 3 3
3 1 5 4 3 2 1 2 6 12 13 13 13 12 13 12 11 12 11 10 8 7 7 7 6 6 6 7 6 5 6 5 5 5 5 4 4 3 3 2 2 2 1 1 2 2 3 4 3
6 5 4 4 3 3 1 2 4 8 9 11 11 11 11 11 11 10 9 9 8 7 7 7 7 7 7 6 6 6 6 5 5 5 5 4 4 3 2 1 1 1 0 1 2 3 4 4 4
4 3 3 4 2 3 2 2 5 6 8 9 10 10 10 9 9 9 9 8 8 7 7 7 7 7 6 6 5 5 5 5 6 5 5 5 4 4 3 2 2 1 1 1 0 2 3 4 4
Wind_Direction
294 291 117 75 53 55 80 82 91 68 62 72 84 88 89 72 95 135 138 145 137 145 150 147 144 139 136 135 134 131 128 124 121 118 115 113 111 109 106 102 99 97 94 90 89 91 95 101 103
305 154 99 61 80 79 54 122 91 101 136 122 87 91 88 72 85 105 121 141 140 145 146 147 145 142 139 138 137 134 132 129 126 124 122 120 118 115 112 109 106 104 101 97 96 96 99 106 108
262 178 92 69 105 145 173 189 141 121 117 110 88 64 85 114 118 119 141 141 140 144 145 150 147 145 143 141 140 139 136 133 131 131 129 126 124 121 117 113 111 109 108 104 101 102 105 111 111
70 56 54 72 145 192 178 193 156 113 82 78 93 62 61 132 136 133 141 142 141 144 146 152 149 149 148 146 145 144 142 138 137 137 135 133 131 128 123 119 115 113 111 108 107 109 116 122 122
76 68 49 37 324 235 192 183 142 114 94 84 89 80 37 50 122 134 143 144 143 145 149 155 154 154 154 153 153 150 147 144 143 144 142 142 140 136 131 126 121 118 117 115 113 119 131 138 135
56 58 59 10 327 319 2 94 98 100 111 112 105 100 72 120 131 143 145 146 146 149 153 158 161 160 161 160 158 156 155 152 152 153 153 153 151 148 143 137 132 128 126 125 124 127 138 145 143
87 74 59 344 326 352 10 69 105 117 128 140 125 101 116 151 146 146 147 146 148 152 156 158 163 165 167 166 165 164 163 162 163 163 162 162 161 158 155 152 149 147 147 146 145 148 155 160 160
112 90 46 8 350 327 328 20 103 106 111 130 119 128 160 188 157 147 148 148 152 157 161 162 165 166 167 170 173 173 171 172 173 171 169 170 169 167 166 164 166 168 170 173 176 182 190 201 213
85 76 69 357 336 308 326 15 34 60 82 66 80 142 161 162 151 143 146 149 159 166 170 170 172 173 171 174 182 179 179 180 180 178 179 175 171 170 172 179 182 185 188 194 202 213 226 245 272
92 110 180 188 197 264 312 344 48 68 65 61 71 99 140 154 155 156 161 167 173 178 182 180 181 180 178 184 179 176 181 180 179 179 180 170 174 187 190 198 196 196 201 209 219 232 243 255 284
112 146 167 174 204 234 297 342 27 101 92 161 155 154 160 166 167 171 174 178 182 183 184 185 187 185 183 185 175 180 178 178 183 185 184 178 183 200 203 196 206 207 210 218 240 252 259 257 257
76 140 161 180 211 220 218 225 42 80 198 192 168 162 163 170 179 183 184 185 184 183 190 188 189 187 188 185 181 183 183 186 191 196 193 187 190 199 191 195 199 203 209 210 224 239 253 257 247
62 185 191 190 206 216 190 112 89 23 10 74 120 125 140 155 165 193 197 186 184 188 192 189 189 189 188 184 184 186 190 193 195 196 198 192 190 191 188 200 204 211 213 213 217 226 239 246 247
215 218 267 274 286 345 72 38 50 4 22 61 79 87 91 95 86 53 41 54 179 191 200 194 191 191 186 186 188 188 191 193 193 197 199 195 193 189 191 200 207 214 217 215 211 217 218 215 193
326 349 343 358 6 7 71 41 25 357 39 54 54 64 66 55 52 46 37 35 31 22 356 210 199 193 190 190 191 188 190 191 195 201 202 200 197 193 194 199 205 212 217 218 205 209 183 176 163
18 30 360 0 19 359 74 62 359 4 49 48 37 37 46 45 43 42 39 37 33 25 17 356 245 203 197 197 196 191 190 192 197 199 201 206 204 195 190 193 200 200 199 191 178 163 144 156 135
24 21 0 355 20 17 69 75 5 19 49 50 38 28 26 33 31 29 34 36 32 27 19 12 0 337 227 210 202 199 193 194 196 195 197 205 205 196 184 187 190 182 176 172 171 149 145 143 145
347 8 9 11 2 31 56 53 36 36 51 46 39 28 18 25 21 18 25 29 30 26 22 17 9 4 340 272 223 208 202 201 195 193 196 194 195 193 180 180 178 166 159 159 152 142 135 142 153
70 71 29 10 4 42 67 64 46 42 45 39 30 23 14 12 9 10 15 17 20 19 17 16 9 1 357 333 250 213 209 204 199 196 192 188 184 181 176 174 167 161 161 165 154 138 135 133 126
48 49 12 335 349 48 83 68 51 45 43 36 29 17 8 4 4 4 7 10 13 12 8 5 0 350 342 319 278 232 215 215 203 194 181 180 177 176 177 167 164 161 152 154 156 143 138 144 138
25 37 343 317 348 21 101 61 35 33 34 30 24 17 10 3 359 357 0 4 5 6 0 356 350 343 333 322 299 264 196 203 199 203 188 182 173 171 168 163 156 159 158 166 168 159 154 163 174
333 324 320 312 6 327 44 102 26 6 18 16 10 7 0 354 354 353 355 354 356 353 349 347 345 343 335 329 311 253 213 206 205 199 185 180 172 166 160 158 159 166 164 163 173 171 166 156 169
307 306 309 299 151 41 16 97 18 2 7 2 358 356 352 348 347 345 345 341 343 343 345 344 345 346 341 336 324 288 243 224 202 177 168 168 154 159 157 154 156 162 164 164 170 163 169 170 168
335 355 23 42 68 55 343 81 32 4 349 343 346 345 341 341 339 338 336 339 341 342 344 344 345 344 344 343 343 329 271 223 186 178 176 167 154 152 150 144 149 157 158 165 168 166 169 176 177
23 44 30 21 27 21 19 73 42 341 345 339 337 335 338 339 339 339 339 341 343 343 341 340 345 343 344 351 357 355 349 339 181 177 172 161 156 149 152 142 148 152 152 156 156 159 172 177 185
17 80 107 114 307 330 28 56 340 340 339 337 337 338 344 344 343 340 339 340 340 337 338 341 343 344 349 357 0 5 12 30 53 85 119 131 130 125 129 128 134 138 150 152 158 160 180 187 192
23 15 150 139 61 62 40 10 308 345 347 349 349 350 350 345 343 342 340 342 338 334 334 340 348 353 358 3 9 19 25 36 50 64 78 86 91 100 101 113 120 135 154 158 157 161 196 193 191
55 36 57 70 82 62 32 8 336 334 338 340 343 345 343 341 342 345 345 343 340 334 334 348 359 1 5 11 17 26 29 37 49 62 71 76 80 81 83 86 106 121 129 136 153 182 201 184 185
7 21 58 80 102 116 55 348 322 311 319 326 328 328 330 336 337 335 338 341 343 344 351 359 0 6 10 13 17 24 25 30 45 52 59 64 66 69 75 72 75 89 166 203 195 208 194 182 191
52 28 82 109 67 81 108 299 294 300 304 313 320 321 323 328 327 328 336 345 349 353 356 1 4 10 9 10 21 25 25 31 37 37 43 52 52 46 38 34 38 21 2 358 224 240 218 202 195